INTELSAT 33E DEB, 62000

Orbit data source: Space-Track

INTELSAT 33E DEB, 62000 is space debris in GEO originally from a launch on Wed, 24 Aug 2016 UTC launched from the French Guiana (FRGUI). Debris objects in space refer to the collection of defunct objects orbiting the Earth. Examples of debris include non-operational satellites, rocket bodies, and fragments generated from explosions, collisions, or faulty payload assembly.

Not visible in the next 10 days
Identifier
62000, 2016-053S
Orbit
GEO
Country
Flag of USUS / ITSO
Related business
Manufacturer
Boeing/ES
Mission
Spacecraft
Bus & Motor
Unknown
Mass
Unknown
Launch date (UTC)
2016-08-24 (10 years ago)
Launch vehicle
Unknown
Launch site
French Guiana (FRGUI)
Object type
Payload
Rocket body
Debris
Shape & HBR
Unknown shape, 1.1 m
Radar Cross Section
RCS unknown

Expand to show TLE details & history
Last TLE update: 1 day ago

TLE from 1 day ago
0 INTELSAT 33E DEB
1 62000U 16053S   26256.98928329 -.00000293  00000-0  00000-0 0  9999
2 62000   1.9317  89.5461 0039473 352.5369   8.1300  1.00110188  6977
Epoch: 2026-09-13T23:44Z
TLE epoch observation values (Epoch: 2026-09-13T23:44:34.076Z)
Latitude
-0.00001°
Longitude
101.15132°
Altitude
35,667.338 km
Speed
3.085 km/s
True Right ascension
06h 01m 04s
True Declination
0° 00' 00"
Sunlit
Object was in daylight at epoch
Visualization orbit readout
Latitude
Unknown
Longitude
Unknown
Altitude
Unknown
Speed
Unknown
Apparent Right ascension
Unknown
Apparent Declination
Unknown
Sunlit
N/A
Visualization observer readout
Local Sidereal Time
00:01:53
Azimuth
Unknown
Elevation
Unknown
Doppler factor
Unknown
Orbital elements
Apogee altitude
35,999.645 km
Perigee altitude
35,666.405 km
Semi-major axis
42,211.162 km
Eccentricity
0.00395
Inclination
1.9317°
RAAN
89.5461°
Arg. of periapsis
352.5369°
True anomaly
8.19428°
Mean anomaly
8.13°
Eccentric anomaly
8.16211°
Mean motion
0.25027 °/min
Orbital period
1,438.47 mins
BSTAR
0
Loading maneuver chart data...
Computing Atmospheric mass density...
Loading historical data...
Loading historical data...
Loading historical data...
Loading historical data...
Loading historical data...
Loading historical data...
Loading historical data...

Documentation

Showing up to 5 results
|